TimeEDT,TemperatureF,Dew PointF,Humidity,Sea Level PressureIn,VisibilityMPH,Wind Direction,Wind SpeedMPH,Gust SpeedMPH,PrecipitationIn,Events,Conditions,WindDirDegrees,DateUTC
12:56 AM,48.0,27.0,44,30.42,10.0,North,5.8,-,N/A,,Clear,10,2013-04-27 04:56:00
1:56 AM,46.9,26.1,44,30.41,10.0,North,8.1,-,N/A,,Clear,350,2013-04-27 05:56:00
2:56 AM,46.9,25.0,42,30.39,10.0,North,8.1,-,N/A,,Clear,10,2013-04-27 06:56:00
3:56 AM,46.0,26.1,46,30.39,10.0,North,8.1,-,N/A,,Clear,350,2013-04-27 07:56:00
4:56 AM,45.0,26.1,48,30.40,10.0,North,10.4,-,N/A,,Clear,350,2013-04-27 08:56:00
5:56 AM,44.1,26.1,49,30.40,10.0,North,10.4,-,N/A,,Clear,350,2013-04-27 09:56:00
6:56 AM,46.0,27.0,47,30.41,10.0,North,8.1,-,N/A,,Clear,350,2013-04-27 10:56:00
7:56 AM,50.0,27.0,41,30.42,10.0,North,11.5,-,N/A,,Clear,350,2013-04-27 11:56:00
8:56 AM,53.1,28.9,40,30.42,10.0,North,10.4,18.4,N/A,,Clear,360,2013-04-27 12:56:00
9:56 AM,55.9,27.0,33,30.41,10.0,North,11.5,-,N/A,,Clear,350,2013-04-27 13:56:00
10:56 AM,59.0,24.1,26,30.41,10.0,NW,6.9,-,N/A,,Clear,310,2013-04-27 14:56:00
11:56 AM,61.0,24.1,24,30.39,10.0,North,9.2,-,N/A,,Clear,360,2013-04-27 15:56:00
12:56 PM,62.1,21.0,21,30.36,10.0,NNW,9.2,-,N/A,,Clear,330,2013-04-27 16:56:00
1:56 PM,64.0,19.0,18,30.34,10.0,Variable,4.6,-,N/A,,Clear,0,2013-04-27 17:56:00
2:56 PM,66.0,23.0,20,30.32,10.0,NNW,9.2,16.1,N/A,,Clear,330,2013-04-27 18:56:00
3:56 PM,66.0,23.0,20,30.30,10.0,NW,10.4,17.3,N/A,,Clear,320,2013-04-27 19:56:00
4:56 PM,66.9,26.1,21,30.28,10.0,NNW,6.9,-,N/A,,Clear,340,2013-04-27 20:56:00
5:56 PM,66.9,24.1,20,30.28,10.0,Calm,Calm,-,N/A,,Clear,0,2013-04-27 21:56:00
6:56 PM,63.0,25.0,24,30.27,10.0,South,5.8,-,N/A,,Clear,170,2013-04-27 22:56:00
7:56 PM,55.9,30.9,39,30.30,10.0,SSE,8.1,-,N/A,,Scattered Clouds,160,2013-04-27 23:56:00
8:56 PM,52.0,30.9,45,30.31,10.0,SSE,5.8,-,N/A,,Partly Cloudy,160,2013-04-28 00:56:00
9:56 PM,51.1,32.0,48,30.32,10.0,SE,5.8,-,N/A,,Clear,140,2013-04-28 01:56:00
10:56 PM,48.9,34.0,56,30.32,10.0,ESE,3.5,-,N/A,,Clear,120,2013-04-28 02:56:00
11:56 PM,48.0,34.0,58,30.31,10.0,Calm,Calm,-,N/A,,Clear,0,2013-04-28 03:56:00